This is the latest recevied weather packets stored in our database for station/object CT7BNL-13. If no packets are shown the sender has not sent any weather packets the latest 10 day(s).
| Time | Temp. | Humidity | Pressure | Rain* | Wind** | Luminosity | Snow |
|---|---|---|---|---|---|---|---|
| 1788020365 | 27.22° C | 52% | 1026.4 hPa | 0 mm | - | 415 W/m² | - |
| 1788019465 | 26.67° C | 51% | 1026.4 hPa | 0 mm | - | 468 W/m² | - |
| 1788018565 | 27.78° C | 47% | 1026.7 hPa | 0 mm | - | 516 W/m² | - |
| 1788017664 | 27.22° C | 48% | 1026.6 hPa | 0 mm | - | 560 W/m² | - |
| 1788016765 | 27.78° C | 49% | 1026.6 hPa | 0 mm | - | 601 W/m² | - |
| 1788015865 | 27.78° C | 48% | 1026.7 hPa | 0 mm | - | 641 W/m² | - |
| 1788014964 | 27.22° C | 48% | 1026.7 hPa | 0 mm | - | 676 W/m² | - |
| 1788014065 | 27.78° C | 45% | 1027.1 hPa | 0 mm | - | 707 W/m² | - |
| 1788013164 | 27.22° C | 45% | 1027.3 hPa | 0 mm | - | 738 W/m² | - |
| 1788012264 | 27.22° C | 44% | 1027.3 hPa | 0 mm | - | 763 W/m² | - |
| 1788011365 | 26.67° C | 48% | 1027.4 hPa | 0 mm | - | 669 W/m² | - |
| 1788010465 | 25.56° C | 49% | 1027.3 hPa | 0 mm | - | 801 W/m² | - |
| 1788009565 | 26.67° C | 50% | 1027.5 hPa | 0 mm | - | 819 W/m² | - |
| 1788008665 | 25° C | 53% | 1027.5 hPa | 0 mm | - | 824 W/m² | - |
| 1788007764 | 25.56° C | 51% | 1028 hPa | 0 mm | - | 830 W/m² | - |
| 1788006865 | 25° C | 54% | 1027.9 hPa | 0 mm | - | 834 W/m² | - |
| 1788005965 | 25° C | 55% | 1028.1 hPa | 0 mm | - | 838 W/m² | - |
| 1788005064 | 25° C | 59% | 1028.1 hPa | 0 mm | - | 824 W/m² | - |
| 1788004165 | 24.44° C | 61% | 1028.4 hPa | 0 mm | - | 824 W/m² | - |
| 1788003264 | 22.78° C | 64% | 1028.2 hPa | 0 mm | - | 810 W/m² | - |
| 1788002365 | 23.33° C | 64% | 1028.3 hPa | 0 mm | - | 795 W/m² | - |
| 1788001465 | 22.78° C | 66% | 1028.5 hPa | 0 mm | - | 771 W/m² | - |
| 1788000565 | 21.67° C | 69% | 1028.5 hPa | 0 mm | - | 752 W/m² | - |
| 1787999665 | 21.67° C | 70% | 1028.5 hPa | 0 mm | - | 728 W/m² | - |
| 1787998764 | 22.22° C | 66% | 1028.7 hPa | 0 mm | - | 694 W/m² | - |
* Rain latest hour (hover to see other rain measurements)
** Current wind speed in m/s (hover to see current wind gust speed)